contact:dominique.lefevre@mio.osupytheas.fr, maurice.libes@osupytheas.fr, didier.mallarino@osupytheas.fr
Project:EMSO http://www.emso-fr.org/EMSO-France
Depth: 2436.0 m
Title:EMSO Ligure Ouest : Data MII capteur MICROCAT
DateTime_Computer,Latitude,Longitude,Temperature,Conductivity,Pressure,DateTime_Instrument
DateTime_Computer,Latitude,Longitude,degC,S m-1,dbar,DateTime_Instrument
2021-06-09T00:00:01Z,42.805,6.029,13.3068,4.60079,2470.007,2021-6-09T02:01:14Z
2021-06-09T00:03:04Z,42.805,6.029,13.3066,4.60080,2469.993,2021-6-09T02:04:17Z
2021-06-09T00:06:07Z,42.805,6.029,13.3067,4.60068,2470.063,2021-6-09T02:07:20Z
2021-06-09T00:09:10Z,42.805,6.029,13.3070,4.60060,2469.984,2021-6-09T02:10:23Z
2021-06-09T00:12:13Z,42.805,6.029,13.3067,4.60074,2470.007,2021-6-09T02:13:26Z
2021-06-09T00:15:16Z,42.805,6.029,13.3075,4.60061,2469.993,2021-6-09T02:16:29Z
2021-06-09T00:18:20Z,42.805,6.029,13.3075,4.60066,2469.984,2021-6-09T02:19:33Z
2021-06-09T00:21:23Z,42.805,6.029,13.3071,4.60062,2470.017,2021-6-09T02:22:36Z
2021-06-09T00:24:26Z,42.805,6.029,13.3076,4.60074,2469.993,2021-6-09T02:25:39Z
2021-06-09T00:27:29Z,42.805,6.029,13.3077,4.60074,2469.984,2021-6-09T02:28:42Z
2021-06-09T00:30:32Z,42.805,6.029,13.3082,4.60072,2469.97,2021-6-09T02:31:45Z
2021-06-09T00:33:35Z,42.805,6.029,13.3080,4.60064,2470.044,2021-6-09T02:34:48Z
2021-06-09T00:36:38Z,42.805,6.029,13.3069,4.60058,2469.97,2021-6-09T02:37:51Z
2021-06-09T00:39:41Z,42.805,6.029,13.3063,4.60050,2470.03,2021-6-09T02:40:54Z
2021-06-09T00:42:45Z,42.805,6.029,13.3052,4.60039,2469.97,2021-6-09T02:43:58Z
2021-06-09T00:45:48Z,42.805,6.029,13.3042,4.60054,2469.993,2021-6-09T02:47:01Z
2021-06-09T00:48:51Z,42.805,6.029,13.3043,4.60057,2470.007,2021-6-09T02:50:04Z
2021-06-09T00:51:54Z,42.805,6.029,13.3062,4.60017,2470.017,2021-6-09T02:53:07Z
2021-06-09T00:54:57Z,42.805,6.029,13.3058,4.60029,2470.007,2021-6-09T02:56:10Z
2021-06-09T00:58:00Z,42.805,6.029,13.3054,4.60014,2470.007,2021-6-09T02:59:13Z
2021-06-09T01:01:03Z,42.805,6.029,13.3073,4.60016,2469.97,2021-6-09T03:02:16Z
2021-06-09T01:04:06Z,42.805,6.029,13.3076,4.60011,2470.03,2021-6-09T03:05:19Z
2021-06-09T01:07:09Z,42.805,6.029,13.3056,4.60014,2470.03,2021-6-09T03:08:22Z
2021-06-09T01:10:13Z,42.805,6.029,13.3057,4.60021,2470.007,2021-6-09T03:11:26Z
2021-06-09T01:13:16Z,42.805,6.029,13.3048,4.60014,2470.007,2021-6-09T03:14:29Z
2021-06-09T01:16:19Z,42.805,6.029,13.3041,4.60019,2469.993,2021-6-09T03:17:32Z
2021-06-09T01:19:22Z,42.805,6.029,13.3036,4.60031,2469.984,2021-6-09T03:20:35Z
2021-06-09T01:22:25Z,42.805,6.029,13.3036,4.60036,2470.053,2021-6-09T03:23:38Z
2021-06-09T01:25:28Z,42.805,6.029,13.3025,4.60047,2470.03,2021-6-09T03:26:41Z
2021-06-09T01:28:31Z,42.805,6.029,13.3046,4.60019,2470.03,2021-6-09T03:29:44Z
2021-06-09T01:31:34Z,42.805,6.029,13.3056,4.60032,2469.993,2021-6-09T03:32:47Z
2021-06-09T01:34:38Z,42.805,6.029,13.3051,4.60057,2470.03,2021-6-09T03:35:51Z
2021-06-09T01:37:41Z,42.805,6.029,13.3037,4.60033,2470.03,2021-6-09T03:38:54Z
2021-06-09T01:40:44Z,42.805,6.029,13.3038,4.60051,2470.03,2021-6-09T03:41:57Z
2021-06-09T01:43:47Z,42.805,6.029,13.3054,4.60026,2470.091,2021-6-09T03:45:00Z
2021-06-09T01:46:50Z,42.805,6.029,13.3067,4.60015,2470.053,2021-6-09T03:48:03Z
2021-06-09T01:49:53Z,42.805,6.029,13.3057,4.60023,2469.993,2021-6-09T03:51:06Z
2021-06-09T01:52:56Z,42.805,6.029,13.3065,4.60014,2470.03,2021-6-09T03:54:09Z
2021-06-09T01:55:59Z,42.805,6.029,13.3054,4.60024,2470.017,2021-6-09T03:57:12Z
2021-06-09T01:59:02Z,42.805,6.029,13.3044,4.60049,2470.03,2021-6-09T04:00:15Z
2021-06-09T02:02:06Z,42.805,6.029,13.3046,4.60048,2469.984,2021-6-09T04:03:19Z
2021-06-09T02:05:09Z,42.805,6.029,13.3022,4.60042,2469.993,2021-6-09T04:06:22Z
2021-06-09T02:08:12Z,42.805,6.029,13.3023,4.60068,2470.017,2021-6-09T04:09:25Z
2021-06-09T02:11:15Z,42.805,6.029,13.3036,4.60027,2470.007,2021-6-09T04:12:28Z
2021-06-09T02:14:18Z,42.805,6.029,13.3046,4.60021,2470.03,2021-6-09T04:15:31Z
2021-06-09T02:17:21Z,42.805,6.029,13.3076,4.60027,2470.017,2021-6-09T04:18:34Z
2021-06-09T02:20:24Z,42.805,6.029,13.3063,4.60026,2470.03,2021-6-09T04:21:37Z
2021-06-09T02:23:27Z,42.805,6.029,13.3036,4.60022,2470.04,2021-6-09T04:24:40Z
2021-06-09T02:26:30Z,42.805,6.029,13.3034,4.60039,2470.053,2021-6-09T04:27:44Z
2021-06-09T02:29:34Z,42.805,6.029,13.3041,4.60038,2470.03,2021-6-09T04:30:47Z
2021-06-09T02:32:37Z,42.805,6.029,13.3048,4.60024,2470.053,2021-6-09T04:33:50Z
2021-06-09T02:35:40Z,42.805,6.029,13.3044,4.60027,2470.007,2021-6-09T04:36:53Z
2021-06-09T02:38:43Z,42.805,6.029,13.3042,4.60035,2470.03,2021-6-09T04:39:56Z
2021-06-09T02:41:46Z,42.805,6.029,13.3030,4.60019,2470.053,2021-6-09T04:42:59Z
2021-06-09T02:44:49Z,42.805,6.029,13.3032,4.60021,2470.03,2021-6-09T04:46:02Z
2021-06-09T02:47:52Z,42.805,6.029,13.3025,4.60015,2470.053,2021-6-09T04:49:05Z
2021-06-09T02:50:55Z,42.805,6.029,13.3026,4.60023,2470.1,2021-6-09T04:52:08Z
2021-06-09T02:53:59Z,42.805,6.029,13.3041,4.60057,2470.03,2021-6-09T04:55:12Z
2021-06-09T02:57:02Z,42.805,6.029,13.3059,4.60062,2470.053,2021-6-09T04:58:15Z
2021-06-09T03:00:05Z,42.805,6.029,13.3042,4.60038,2470.053,2021-6-09T05:01:18Z
2021-06-09T03:03:08Z,42.805,6.029,13.3044,4.60026,2470.063,2021-6-09T05:04:21Z
2021-06-09T03:06:11Z,42.805,6.029,13.3047,4.60032,2470.063,2021-6-09T05:07:24Z
2021-06-09T03:09:14Z,42.805,6.029,13.3039,4.60021,2470.077,2021-6-09T05:10:27Z
2021-06-09T03:12:17Z,42.805,6.029,13.3037,4.60010,2470.1,2021-6-09T05:13:30Z
2021-06-09T03:15:20Z,42.805,6.029,13.3050,4.60023,2470.063,2021-6-09T05:16:33Z
2021-06-09T03:18:23Z,42.805,6.029,13.3021,4.60027,2470.1,2021-6-09T05:19:36Z
2021-06-09T03:21:27Z,42.805,6.029,13.3016,4.60013,2470.087,2021-6-09T05:22:40Z
2021-06-09T03:24:30Z,42.805,6.029,13.3040,4.60029,2470.077,2021-6-09T05:25:43Z
2021-06-09T03:27:33Z,42.805,6.029,13.3029,4.60015,2470.063,2021-6-09T05:28:46Z
2021-06-09T03:30:36Z,42.805,6.029,13.3018,4.60019,2470.077,2021-6-09T05:31:49Z
2021-06-09T03:33:39Z,42.805,6.029,13.3006,4.60052,2470.077,2021-6-09T05:34:52Z
2021-06-09T03:36:42Z,42.805,6.029,13.3013,4.60039,2470.087,2021-6-09T05:37:55Z
2021-06-09T03:39:45Z,42.805,6.029,13.3017,4.60055,2470.087,2021-6-09T05:40:58Z
2021-06-09T03:42:48Z,42.805,6.029,13.3027,4.60067,2470.124,2021-6-09T05:44:01Z
2021-06-09T03:45:52Z,42.805,6.029,13.3032,4.60036,2470.124,2021-6-09T05:47:05Z
2021-06-09T03:48:55Z,42.805,6.029,13.3031,4.60035,2470.077,2021-6-09T05:50:08Z
2021-06-09T03:51:58Z,42.805,6.029,13.3036,4.60011,2470.147,2021-6-09T05:53:11Z
2021-06-09T03:55:01Z,42.805,6.029,13.3034,4.60026,2470.147,2021-6-09T05:56:14Z
2021-06-09T03:58:04Z,42.805,6.029,13.3034,4.60033,2470.087,2021-6-09T05:59:17Z
2021-06-09T04:01:07Z,42.805,6.029,13.3038,4.60056,2470.1,2021-6-09T06:02:20Z
2021-06-09T04:04:10Z,42.805,6.029,13.3036,4.60067,2470.11,2021-6-09T06:05:23Z
2021-06-09T04:07:13Z,42.805,6.029,13.3054,4.60033,2470.087,2021-6-09T06:08:26Z
2021-06-09T04:10:16Z,42.805,6.029,13.3046,4.60044,2470.1,2021-6-09T06:11:30Z
2021-06-09T04:13:20Z,42.805,6.029,13.3043,4.60035,2470.147,2021-6-09T06:14:33Z
2021-06-09T04:16:23Z,42.805,6.029,13.3023,4.60043,2470.11,2021-6-09T06:17:36Z
2021-06-09T04:19:26Z,42.805,6.029,13.3036,4.60034,2470.147,2021-6-09T06:20:39Z
2021-06-09T04:22:29Z,42.805,6.029,13.3038,4.60051,2470.124,2021-6-09T06:23:42Z
2021-06-09T04:25:32Z,42.805,6.029,13.3038,4.60041,2470.133,2021-6-09T06:26:45Z
2021-06-09T04:28:35Z,42.805,6.029,13.3033,4.60051,2470.156,2021-6-09T06:29:48Z
2021-06-09T04:31:38Z,42.805,6.029,13.3025,4.60046,2470.171,2021-6-09T06:32:51Z
2021-06-09T04:34:41Z,42.805,6.029,13.3023,4.60024,2470.147,2021-6-09T06:35:54Z
2021-06-09T04:37:45Z,42.805,6.029,13.3015,4.60037,2470.133,2021-6-09T06:38:58Z
2021-06-09T04:40:48Z,42.805,6.029,13.3019,4.60026,2470.156,2021-6-09T06:42:01Z
2021-06-09T04:43:51Z,42.805,6.029,13.3043,4.60032,2470.156,2021-6-09T06:45:04Z
2021-06-09T04:46:54Z,42.805,6.029,13.3048,4.60041,2470.156,2021-6-09T06:48:07Z
2021-06-09T04:49:57Z,42.805,6.029,13.3037,4.60028,2470.171,2021-6-09T06:51:10Z
2021-06-09T04:53:00Z,42.805,6.029,13.3039,4.60031,2470.194,2021-6-09T06:54:13Z
2021-06-09T04:56:03Z,42.805,6.029,13.3023,4.60044,2470.156,2021-6-09T06:57:16Z
2021-06-09T04:59:06Z,42.805,6.029,13.3027,4.60063,2470.194,2021-6-09T07:00:19Z
2021-06-09T05:02:09Z,42.805,6.029,13.3019,4.60041,2470.156,2021-6-09T07:03:23Z
2021-06-09T05:05:13Z,42.805,6.029,13.3027,4.60044,2470.217,2021-6-09T07:06:26Z
2021-06-09T05:08:16Z,42.805,6.029,13.3041,4.60033,2470.18,2021-6-09T07:09:29Z
2021-06-09T05:11:19Z,42.805,6.029,13.3019,4.60046,2470.203,2021-6-09T07:12:32Z
2021-06-09T05:14:22Z,42.805,6.029,13.3031,4.60056,2470.18,2021-6-09T07:15:35Z
2021-06-09T05:17:25Z,42.805,6.029,13.3017,4.60054,2470.203,2021-6-09T07:18:38Z
2021-06-09T05:20:28Z,42.805,6.029,13.3038,4.60026,2470.194,2021-6-09T07:21:41Z
2021-06-09T05:23:31Z,42.805,6.029,13.3039,4.60044,2470.217,2021-6-09T07:24:44Z
2021-06-09T05:26:34Z,42.805,6.029,13.3034,4.60057,2470.217,2021-6-09T07:27:47Z
2021-06-09T05:29:38Z,42.805,6.029,13.3039,4.60052,2470.194,2021-6-09T07:30:51Z
2021-06-09T05:32:41Z,42.805,6.029,13.3020,4.60062,2470.24,2021-6-09T07:33:54Z
2021-06-09T05:35:44Z,42.805,6.029,13.3040,4.60033,2470.194,2021-6-09T07:36:57Z
2021-06-09T05:38:47Z,42.805,6.029,13.3041,4.60049,2470.217,2021-6-09T07:40:00Z
2021-06-09T05:41:50Z,42.805,6.029,13.3019,4.60016,2470.217,2021-6-09T07:43:03Z
2021-06-09T05:44:53Z,42.805,6.029,13.3015,4.60021,2470.24,2021-6-09T07:46:06Z
2021-06-09T05:47:56Z,42.805,6.029,13.3016,4.60024,2470.264,2021-6-09T07:49:09Z
2021-06-09T05:50:59Z,42.805,6.029,13.3014,4.60015,2470.227,2021-6-09T07:52:12Z
2021-06-09T05:54:03Z,42.805,6.029,13.3010,4.60026,2470.24,2021-6-09T07:55:16Z
2021-06-09T05:57:06Z,42.805,6.029,13.3024,4.60037,2470.18,2021-6-09T07:58:19Z
2021-06-09T06:00:09Z,42.805,6.029,13.3013,4.60016,2470.227,2021-6-09T08:01:22Z
2021-06-09T06:03:12Z,42.805,6.029,13.3039,4.60021,2470.227,2021-6-09T08:04:25Z
2021-06-09T06:06:15Z,42.805,6.029,13.3042,4.60026,2470.217,2021-6-09T08:07:28Z
2021-06-09T06:09:18Z,42.805,6.029,13.3018,4.60032,2470.217,2021-6-09T08:10:31Z
2021-06-09T06:12:21Z,42.805,6.029,13.3021,4.60053,2470.24,2021-6-09T08:13:34Z
2021-06-09T06:15:24Z,42.805,6.029,13.3056,4.60028,2470.264,2021-6-09T08:16:37Z
2021-06-09T06:18:27Z,42.805,6.029,13.3017,4.60041,2470.203,2021-6-09T08:19:41Z
2021-06-09T06:21:31Z,42.805,6.029,13.3029,4.60026,2470.217,2021-6-09T08:22:44Z
2021-06-09T06:24:34Z,42.805,6.029,13.3030,4.60062,2470.264,2021-6-09T08:25:47Z
2021-06-09T06:27:37Z,42.805,6.029,13.3014,4.60022,2470.25,2021-6-09T08:28:50Z
2021-06-09T06:30:40Z,42.805,6.029,13.3034,4.60016,2470.217,2021-6-09T08:31:53Z
2021-06-09T06:33:43Z,42.805,6.029,13.3029,4.60031,2470.264,2021-6-09T08:34:56Z
2021-06-09T06:36:46Z,42.805,6.029,13.3030,4.60039,2470.227,2021-6-09T08:37:59Z
2021-06-09T06:39:49Z,42.805,6.029,13.3026,4.60024,2470.227,2021-6-09T08:41:02Z
2021-06-09T06:42:52Z,42.805,6.029,13.3021,4.60025,2470.25,2021-6-09T08:44:05Z
2021-06-09T06:45:56Z,42.805,6.029,13.3035,4.60033,2470.227,2021-6-09T08:47:09Z
2021-06-09T06:48:59Z,42.805,6.029,13.3032,4.60026,2470.227,2021-6-09T08:50:12Z
2021-06-09T06:52:02Z,42.805,6.029,13.3042,4.60027,2470.227,2021-6-09T08:53:15Z
2021-06-09T06:55:05Z,42.805,6.029,13.3026,4.60032,2470.227,2021-6-09T08:56:18Z
2021-06-09T06:58:08Z,42.805,6.029,13.3033,4.60029,2470.264,2021-6-09T08:59:21Z
2021-06-09T07:01:11Z,42.805,6.029,13.3035,4.60025,2470.287,2021-6-09T09:02:24Z
2021-06-09T07:04:14Z,42.805,6.029,13.3026,4.60031,2470.24,2021-6-09T09:05:27Z
2021-06-09T07:07:17Z,42.805,6.029,13.3022,4.60038,2470.25,2021-6-09T09:08:30Z
2021-06-09T07:10:20Z,42.805,6.029,13.3028,4.60035,2470.25,2021-6-09T09:11:33Z
2021-06-09T07:13:24Z,42.805,6.029,13.3027,4.60029,2470.264,2021-6-09T09:14:37Z
2021-06-09T07:16:27Z,42.805,6.029,13.3056,4.60036,2470.24,2021-6-09T09:17:40Z
2021-06-09T07:19:30Z,42.805,6.029,13.3045,4.60043,2470.25,2021-6-09T09:20:43Z
2021-06-09T07:22:33Z,42.805,6.029,13.3043,4.60022,2470.227,2021-6-09T09:23:46Z
2021-06-09T07:25:36Z,42.805,6.029,13.3043,4.60039,2470.264,2021-6-09T09:26:49Z
2021-06-09T07:28:39Z,42.805,6.029,13.3049,4.60039,2470.25,2021-6-09T09:29:52Z
2021-06-09T07:31:42Z,42.805,6.029,13.3034,4.60027,2470.203,2021-6-09T09:32:55Z
2021-06-09T07:34:45Z,42.805,6.029,13.3048,4.60019,2470.24,2021-6-09T09:35:58Z
2021-06-09T07:37:49Z,42.805,6.029,13.3042,4.60026,2470.227,2021-6-09T09:39:02Z
2021-06-09T07:40:52Z,42.805,6.029,13.3027,4.60052,2470.25,2021-6-09T09:42:05Z
2021-06-09T07:43:55Z,42.805,6.029,13.3035,4.60029,2470.227,2021-6-09T09:45:08Z
2021-06-09T07:46:58Z,42.805,6.029,13.3027,4.60011,2470.26,2021-6-09T09:48:11Z
2021-06-09T07:50:01Z,42.805,6.029,13.3024,4.60021,2470.24,2021-6-09T09:51:14Z
2021-06-09T07:53:04Z,42.805,6.029,13.3021,4.60018,2470.25,2021-6-09T09:54:17Z
2021-06-09T07:56:07Z,42.805,6.029,13.3029,4.60028,2470.24,2021-6-09T09:57:20Z
2021-06-09T07:59:10Z,42.805,6.029,13.3024,4.60032,2470.24,2021-6-09T10:00:23Z
2021-06-09T08:02:14Z,42.805,6.029,13.3029,4.60020,2470.24,2021-6-09T10:03:27Z
2021-06-09T08:05:17Z,42.805,6.029,13.3026,4.60026,2470.227,2021-6-09T10:06:30Z
2021-06-09T08:08:20Z,42.805,6.029,13.3046,4.60031,2470.227,2021-6-09T10:09:33Z
2021-06-09T08:11:23Z,42.805,6.029,13.3029,4.60022,2470.203,2021-6-09T10:12:36Z
2021-06-09T08:14:26Z,42.805,6.029,13.3021,4.60017,2470.24,2021-6-09T10:15:39Z
2021-06-09T08:17:29Z,42.805,6.029,13.3032,4.60026,2470.227,2021-6-09T10:18:42Z
2021-06-09T08:20:32Z,42.805,6.029,13.3036,4.60041,2470.227,2021-6-09T10:21:45Z
2021-06-09T08:23:35Z,42.805,6.029,13.3025,4.60035,2470.217,2021-6-09T10:24:48Z
2021-06-09T08:26:38Z,42.805,6.029,13.3039,4.60035,2470.25,2021-6-09T10:27:52Z
2021-06-09T08:29:42Z,42.805,6.029,13.3047,4.60032,2470.217,2021-6-09T10:30:55Z
2021-06-09T08:32:45Z,42.805,6.029,13.3028,4.60033,2470.227,2021-6-09T10:33:58Z
2021-06-09T08:35:48Z,42.805,6.029,13.3026,4.60025,2470.25,2021-6-09T10:37:01Z
2021-06-09T08:38:51Z,42.805,6.029,13.3043,4.60021,2470.203,2021-6-09T10:40:04Z
2021-06-09T08:41:54Z,42.805,6.029,13.3026,4.60019,2470.227,2021-6-09T10:43:07Z
2021-06-09T08:44:57Z,42.805,6.029,13.3020,4.60011,2470.227,2021-6-09T10:46:10Z
2021-06-09T08:48:00Z,42.805,6.029,13.3011,4.60016,2470.24,2021-6-09T10:49:13Z
2021-06-09T08:51:03Z,42.805,6.029,13.3014,4.60029,2470.24,2021-6-09T10:52:17Z
2021-06-09T08:54:07Z,42.805,6.029,13.3024,4.60022,2470.203,2021-6-09T10:55:20Z
2021-06-09T08:57:10Z,42.805,6.029,13.3021,4.60030,2470.217,2021-6-09T10:58:23Z
2021-06-09T09:00:13Z,42.805,6.029,13.3021,4.60029,2470.217,2021-6-09T11:01:26Z
2021-06-09T09:03:16Z,42.805,6.029,13.3030,4.60029,2470.217,2021-6-09T11:04:29Z
2021-06-09T09:06:19Z,42.805,6.029,13.3026,4.60033,2470.25,2021-6-09T11:07:32Z
2021-06-09T09:09:22Z,42.805,6.029,13.3029,4.60032,2470.24,2021-6-09T11:10:35Z
2021-06-09T09:12:25Z,42.805,6.029,13.3029,4.60037,2470.203,2021-6-09T11:13:38Z
2021-06-09T09:15:28Z,42.805,6.029,13.3028,4.60033,2470.25,2021-6-09T11:16:42Z
2021-06-09T09:18:32Z,42.805,6.029,13.3025,4.60026,2470.24,2021-6-09T11:19:45Z
2021-06-09T09:21:35Z,42.805,6.029,13.3027,4.60029,2470.18,2021-6-09T11:22:48Z
2021-06-09T09:24:38Z,42.805,6.029,13.3026,4.60030,2470.18,2021-6-09T11:25:51Z
2021-06-09T09:27:41Z,42.805,6.029,13.3035,4.60037,2470.227,2021-6-09T11:28:54Z
2021-06-09T09:30:44Z,42.805,6.029,13.3032,4.60021,2470.217,2021-6-09T11:31:57Z
2021-06-09T09:33:47Z,42.805,6.029,13.3046,4.60031,2470.217,2021-6-09T11:35:00Z
2021-06-09T09:36:50Z,42.805,6.029,13.3057,4.60033,2470.203,2021-6-09T11:38:03Z
2021-06-09T09:39:53Z,42.805,6.029,13.3033,4.60030,2470.194,2021-6-09T11:41:07Z
2021-06-09T09:42:57Z,42.805,6.029,13.3029,4.60023,2470.227,2021-6-09T11:44:10Z
2021-06-09T09:46:00Z,42.805,6.029,13.3028,4.60039,2470.217,2021-6-09T11:47:13Z
2021-06-09T09:49:03Z,42.805,6.029,13.3039,4.60023,2470.227,2021-6-09T11:50:16Z
2021-06-09T09:52:06Z,42.805,6.029,13.3081,4.60033,2470.18,2021-6-09T11:53:19Z
2021-06-09T09:55:09Z,42.805,6.029,13.3047,4.60059,2470.217,2021-6-09T11:56:22Z
2021-06-09T09:58:12Z,42.805,6.029,13.3036,4.60035,2470.227,2021-6-09T11:59:25Z
2021-06-09T10:01:15Z,42.805,6.029,13.3039,4.60060,2470.194,2021-6-09T12:02:28Z
2021-06-09T10:04:18Z,42.805,6.029,13.3029,4.60044,2470.24,2021-6-09T12:05:31Z
2021-06-09T10:07:22Z,42.805,6.029,13.3026,4.60031,2470.203,2021-6-09T12:08:35Z
2021-06-09T10:10:25Z,42.805,6.029,13.3054,4.60046,2470.194,2021-6-09T12:11:38Z
2021-06-09T10:13:28Z,42.805,6.029,13.3040,4.60067,2470.18,2021-6-09T12:14:41Z
2021-06-09T10:16:31Z,42.805,6.029,13.3040,4.60040,2470.194,2021-6-09T12:17:44Z
2021-06-09T10:19:34Z,42.805,6.029,13.3041,4.60052,2470.194,2021-6-09T12:20:47Z
2021-06-09T10:22:37Z,42.805,6.029,13.3039,4.60039,2470.203,2021-6-09T12:23:50Z
2021-06-09T10:25:40Z,42.805,6.029,13.3001,4.60032,2470.18,2021-6-09T12:26:53Z
2021-06-09T10:28:43Z,42.805,6.029,13.2991,4.60028,2470.203,2021-6-09T12:29:56Z
2021-06-09T10:31:47Z,42.805,6.029,13.2994,4.60019,2470.203,2021-6-09T12:33:00Z
2021-06-09T10:34:50Z,42.805,6.029,13.3049,4.60046,2470.18,2021-6-09T12:36:03Z
2021-06-09T10:37:53Z,42.805,6.029,13.3039,4.60044,2470.203,2021-6-09T12:39:06Z
2021-06-09T10:40:56Z,42.805,6.029,13.2990,4.60084,2470.203,2021-6-09T12:42:09Z
2021-06-09T10:43:59Z,42.805,6.029,13.2989,4.60043,2470.217,2021-6-09T12:45:12Z
2021-06-09T10:47:02Z,42.805,6.029,13.3000,4.60013,2470.18,2021-6-09T12:48:15Z
2021-06-09T10:50:05Z,42.805,6.029,13.3046,4.60038,2470.147,2021-6-09T12:51:18Z
2021-06-09T10:53:08Z,42.805,6.029,13.3067,4.60039,2470.203,2021-6-09T12:54:21Z
2021-06-09T10:56:12Z,42.805,6.029,13.3048,4.60050,2470.18,2021-6-09T12:57:25Z
2021-06-09T10:59:15Z,42.805,6.029,13.3021,4.60033,2470.194,2021-6-09T13:00:28Z
2021-06-09T11:02:18Z,42.805,6.029,13.2999,4.60033,2470.18,2021-6-09T13:03:31Z
2021-06-09T11:05:21Z,42.805,6.029,13.3006,4.60031,2470.217,2021-6-09T13:06:34Z
2021-06-09T11:08:24Z,42.805,6.029,13.2996,4.60053,2470.156,2021-6-09T13:09:37Z
2021-06-09T11:11:27Z,42.805,6.029,13.2989,4.60019,2470.24,2021-6-09T13:12:40Z
2021-06-09T11:14:30Z,42.805,6.029,13.2991,4.60019,2470.18,2021-6-09T13:15:43Z
2021-06-09T11:17:33Z,42.805,6.029,13.2988,4.60018,2470.203,2021-6-09T13:18:46Z
2021-06-09T11:20:37Z,42.805,6.029,13.2988,4.60011,2470.18,2021-6-09T13:21:50Z
2021-06-09T11:23:40Z,42.805,6.029,13.2986,4.60014,2470.203,2021-6-09T13:24:53Z
2021-06-09T11:26:43Z,42.805,6.029,13.2990,4.60016,2470.194,2021-6-09T13:27:56Z
2021-06-09T11:29:46Z,42.805,6.029,13.2989,4.60019,2470.194,2021-6-09T13:30:59Z
2021-06-09T11:32:49Z,42.805,6.029,13.2988,4.60016,2470.227,2021-6-09T13:34:02Z
2021-06-09T11:35:52Z,42.805,6.029,13.2988,4.60004,2470.18,2021-6-09T13:37:05Z
2021-06-09T11:38:55Z,42.805,6.029,13.2986,4.60011,2470.18,2021-6-09T13:40:08Z
2021-06-09T11:41:58Z,42.805,6.029,13.2990,4.60003,2470.18,2021-6-09T13:43:11Z
2021-06-09T11:45:01Z,42.805,6.029,13.2991,4.60008,2470.194,2021-6-09T13:46:15Z
2021-06-09T11:48:05Z,42.805,6.029,13.2990,4.60005,2470.194,2021-6-09T13:49:18Z
2021-06-09T11:51:08Z,42.805,6.029,13.2988,4.60002,2470.194,2021-6-09T13:52:21Z
2021-06-09T11:54:11Z,42.805,6.029,13.2986,4.60003,2470.156,2021-6-09T13:55:24Z
2021-06-09T11:57:14Z,42.805,6.029,13.2987,4.60009,2470.156,2021-6-09T13:58:27Z
2021-06-09T12:00:17Z,42.805,6.029,13.2986,4.60004,2470.156,2021-6-09T14:01:30Z
2021-06-09T12:03:20Z,42.805,6.029,13.2985,4.60006,2470.156,2021-6-09T14:04:33Z
2021-06-09T12:06:23Z,42.805,6.029,13.2986,4.60006,2470.217,2021-6-09T14:07:36Z
2021-06-09T12:09:26Z,42.805,6.029,13.2991,4.60002,2470.18,2021-6-09T14:10:40Z
2021-06-09T12:12:30Z,42.805,6.029,13.2986,4.60002,2470.194,2021-6-09T14:13:43Z
2021-06-09T12:15:33Z,42.805,6.029,13.2989,4.60004,2470.217,2021-6-09T14:16:46Z
2021-06-09T12:18:36Z,42.805,6.029,13.2990,4.60008,2470.156,2021-6-09T14:19:49Z
2021-06-09T12:21:39Z,42.805,6.029,13.2990,4.60001,2470.18,2021-6-09T14:22:52Z
2021-06-09T12:24:42Z,42.805,6.029,13.2987,4.59999,2470.171,2021-6-09T14:25:55Z
2021-06-09T12:27:45Z,42.805,6.029,13.2989,4.60003,2470.156,2021-6-09T14:28:58Z
2021-06-09T12:30:48Z,42.805,6.029,13.2989,4.60007,2470.18,2021-6-09T14:32:01Z
2021-06-09T12:33:51Z,42.805,6.029,13.2990,4.60002,2470.18,2021-6-09T14:35:04Z
2021-06-09T12:36:55Z,42.805,6.029,13.2987,4.60003,2470.171,2021-6-09T14:38:08Z
2021-06-09T12:39:58Z,42.805,6.029,13.2988,4.60000,2470.156,2021-6-09T14:41:11Z
2021-06-09T12:43:01Z,42.805,6.029,13.2989,4.60004,2470.18,2021-6-09T14:44:14Z
2021-06-09T12:46:04Z,42.805,6.029,13.2987,4.60002,2470.217,2021-6-09T14:47:17Z
2021-06-09T12:49:07Z,42.805,6.029,13.2986,4.59999,2470.156,2021-6-09T14:50:20Z
2021-06-09T12:52:10Z,42.805,6.029,13.2986,4.60001,2470.194,2021-6-09T14:53:23Z
2021-06-09T12:55:13Z,42.805,6.029,13.2987,4.59999,2470.194,2021-6-09T14:56:26Z
2021-06-09T12:58:16Z,42.805,6.029,13.2986,4.59999,2470.147,2021-6-09T14:59:30Z
2021-06-09T13:01:20Z,42.805,6.029,13.2984,4.59999,2470.171,2021-6-09T15:02:33Z
2021-06-09T13:04:23Z,42.805,6.029,13.2986,4.59999,2470.171,2021-6-09T15:05:36Z
2021-06-09T13:07:26Z,42.805,6.029,13.2986,4.59998,2470.133,2021-6-09T15:08:39Z
2021-06-09T13:10:29Z,42.805,6.029,13.2986,4.59996,2470.147,2021-6-09T15:11:42Z
2021-06-09T13:13:32Z,42.805,6.029,13.2985,4.59997,2470.156,2021-6-09T15:14:45Z
2021-06-09T13:16:35Z,42.805,6.029,13.2984,4.60000,2470.133,2021-6-09T15:17:48Z
2021-06-09T13:19:38Z,42.805,6.029,13.2991,4.60003,2470.194,2021-6-09T15:20:51Z
2021-06-09T13:22:41Z,42.805,6.029,13.2988,4.60003,2470.156,2021-6-09T15:23:54Z
2021-06-09T13:25:45Z,42.805,6.029,13.2986,4.59997,2470.147,2021-6-09T15:26:58Z
2021-06-09T13:28:48Z,42.805,6.029,13.2990,4.60001,2470.156,2021-6-09T15:30:01Z
2021-06-09T13:31:51Z,42.805,6.029,13.2990,4.60001,2470.156,2021-6-09T15:33:04Z
2021-06-09T13:34:54Z,42.805,6.029,13.2987,4.59999,2470.124,2021-6-09T15:36:07Z
2021-06-09T13:37:57Z,42.805,6.029,13.2983,4.60000,2470.147,2021-6-09T15:39:10Z
2021-06-09T13:41:00Z,42.805,6.029,13.2989,4.59999,2470.133,2021-6-09T15:42:13Z
2021-06-09T13:44:03Z,42.805,6.029,13.2987,4.59996,2470.133,2021-6-09T15:45:16Z
2021-06-09T13:47:06Z,42.805,6.029,13.2991,4.59999,2470.11,2021-6-09T15:48:19Z
2021-06-09T13:50:10Z,42.805,6.029,13.2986,4.59997,2470.119,2021-6-09T15:51:23Z
2021-06-09T13:53:13Z,42.805,6.029,13.2988,4.60001,2470.11,2021-6-09T15:54:26Z
2021-06-09T13:56:16Z,42.805,6.029,13.2987,4.60003,2470.133,2021-6-09T15:57:29Z
2021-06-09T13:59:19Z,42.805,6.029,13.2987,4.60010,2470.11,2021-6-09T16:00:32Z
2021-06-09T14:02:22Z,42.805,6.029,13.2986,4.60001,2470.096,2021-6-09T16:03:35Z
2021-06-09T14:05:25Z,42.805,6.029,13.2990,4.60001,2470.133,2021-6-09T16:06:38Z
2021-06-09T14:08:28Z,42.805,6.029,13.2990,4.60005,2470.171,2021-6-09T16:09:41Z
2021-06-09T14:11:31Z,42.805,6.029,13.2990,4.60012,2470.156,2021-6-09T16:12:44Z
2021-06-09T14:14:35Z,42.805,6.029,13.2987,4.60005,2470.171,2021-6-09T16:15:48Z
2021-06-09T14:17:38Z,42.805,6.029,13.2987,4.60003,2470.147,2021-6-09T16:18:51Z
2021-06-09T14:20:41Z,42.805,6.029,13.2985,4.60008,2470.11,2021-6-09T16:21:54Z
2021-06-09T14:23:44Z,42.805,6.029,13.2985,4.60001,2470.063,2021-6-09T16:24:57Z
2021-06-09T14:26:47Z,42.805,6.029,13.2986,4.60003,2470.147,2021-6-09T16:28:00Z
2021-06-09T14:29:50Z,42.805,6.029,13.2988,4.60005,2470.063,2021-6-09T16:31:03Z
2021-06-09T14:32:53Z,42.805,6.029,13.2984,4.59996,2470.087,2021-6-09T16:34:06Z
2021-06-09T14:35:56Z,42.805,6.029,13.2986,4.59996,2470.11,2021-6-09T16:37:09Z
2021-06-09T14:39:00Z,42.805,6.029,13.2987,4.59997,2470.087,2021-6-09T16:40:13Z
2021-06-09T14:42:03Z,42.805,6.029,13.2990,4.59996,2470.1,2021-6-09T16:43:16Z
2021-06-09T14:45:06Z,42.805,6.029,13.2985,4.59997,2470.087,2021-6-09T16:46:19Z
2021-06-09T14:48:09Z,42.805,6.029,13.2992,4.59996,2470.063,2021-6-09T16:49:22Z
2021-06-09T14:51:12Z,42.805,6.029,13.2991,4.59996,2470.096,2021-6-09T16:52:25Z
2021-06-09T14:54:15Z,42.805,6.029,13.2992,4.59998,2470.087,2021-6-09T16:55:28Z
2021-06-09T14:57:18Z,42.805,6.029,13.2989,4.60007,2470.063,2021-6-09T16:58:31Z
2021-06-09T15:00:21Z,42.805,6.029,13.2987,4.60009,2470.124,2021-6-09T17:01:34Z
2021-06-09T15:03:24Z,42.805,6.029,13.2992,4.59998,2470.124,2021-6-09T17:04:38Z
2021-06-09T15:06:28Z,42.805,6.029,13.2990,4.60001,2470.11,2021-6-09T17:07:41Z
2021-06-09T15:09:31Z,42.805,6.029,13.2989,4.59999,2470.1,2021-6-09T17:10:44Z
2021-06-09T15:12:34Z,42.805,6.029,13.2986,4.59997,2470.11,2021-6-09T17:13:47Z